This demonstration page uses our WeatherBlox Daily Observations layout. Learn more.

Left ArrowRight Arrow

Hourly Observations for March 9, 2021

Temp ( °F °C ) Dew Point ( °F °C ) Humidity (%) Winds ( mph kmh ) Pressure ( in mb ) Visibility ( mi km ) Precip ( " mm )
12:54 am 00:54 Clear 56 13.3 37 2.8 49 49 SSE 15 24 29.99 1016 10 16 N/A
1:54 am 01:54 Clear 55 12.8 36 2.2 49 49 S 16 26 29.97 1015 10 16 N/A
2:54 am 02:54 Clear 53 11.7 35 1.7 51 51 S 16 26 29.93 1014 10 16 N/A
3:54 am 03:54 Clear 52 11.1 34 1.1 50 50 SSE 14 22 29.91 1013 10 16 N/A
4:54 am 04:54 Clear 51 10.6 34 1.1 52 52 S 15 24 29.89 1012 10 16 N/A
5:54 am 05:54 Clear 50 10 34 1.1 54 54 S 13 20 29.89 1012 10 16 N/A
6:54 am 06:54 Sunny 49 9.4 34 1.1 56 56 S 10 17 29.90 1013 10 16 N/A
7:54 am 07:54 Sunny 52 11.1 36 2.2 55 55 S 16 26 29.90 1012 10 16 N/A
8:54 am 08:54 Sunny 58 14.4 40 4.4 51 51 S 18 30 29.88 1012 10 16 N/A
9:54 am 09:54 Sunny 62 16.7 43 6.1 50 50 SSW 22 35 29.86 1011 10 16 N/A
10:54 am 10:54 Sunny 66 18.9 45 7.2 47 47 S 21 33 29.84 1010 10 16 N/A
11:54 am 11:54 Sunny 69 20.6 45 7.2 42 42 S 23 37 29.82 1010 10 16 N/A
12:54 pm 12:54 Sunny 72 22.2 46 7.8 40 40 S 21 33 29.80 1009 10 16 N/A
1:54 pm 13:54 Sunny 74 23.3 46 7.8 37 37 S 23 37 29.77 1008 10 16 N/A
2:54 pm 14:54 Sunny 75 23.9 47 8.3 37 37 S 20 31 29.74 1007 10 16 N/A
3:54 pm 15:54 Sunny 76 24.4 48 8.9 37 37 S 22 35 29.74 1007 10 16 N/A
4:54 pm 16:54 Sunny 72 22.2 48 8.9 43 43 S 20 31 29.73 1007 10 16 N/A
5:54 pm 17:54 Sunny 69 20.6 48 8.9 47 47 S 15 24 29.74 1007 10 16 N/A
6:54 pm 18:54 Clear 66 18.9 49 9.4 54 54 S 12 19 29.74 1007 10 16 N/A
7:54 pm 19:54 Clear 66 18.9 49 9.4 54 54 S 16 26 29.75 1007 10 16 N/A
8:54 pm 20:54 Clear 65 18.3 50 10 59 59 S 18 30 29.74 1007 10 16 N/A
9:54 pm 21:54 Mostly Clear 63 17.2 50 10 63 63 S 10 17 29.72 1007 10 16 N/A
10:54 pm 22:54 Mostly Cloudy 62 16.7 49 9.4 62 62 S 12 19 29.71 1006 10 16 N/A
11:54 pm 23:54 Clear 62 16.7 49 9.4 62 62 SSE 10 17 29.69 1006 10 16 N/A

Powered by AerisWeather